Regional Weather Roundup
Issued by NWS

Home | Current Version | Previous Version | Graphics & Text | Print | Product List | Glossary On
Versions: 1 2 3 4 5 6 7 8 9 10 11 12 13 14 15 16 17 18 19 20 21 22 23 24 25 26 27 28 29 30 31 32 33 34 35 36 37 38 39 40 41 42 43 44 45 46 47 48 49 50
000
ASUS43 KLOT 310308
RWRIL

ILLINOIS REGIONAL WEATHER ROUNDUP
NATIONAL WEATHER SERVICE CHICAGO/ROMEOVILLE IL
1000 PM CDT MON MAY 30 2016

NOTE: "FAIR" INDICATES FEW OR NO CLOUDS BELOW 12,000 FEET WITH NO
SIGNIFICANT WEATHER AND/OR OBSTRUCTIONS TO VISIBILITY.

* THESE STATIONS ARE NOT UNDER NWS QUALITY CONTROL. THEY ALSO MAY NOT
  REPORT WEATHER SUCH AS PRECIPITATION OR FOG.

ILZ001-002-007-009-015-016-024-310400-
NORTHWEST ILLINOIS

CITY           SKY/WX    TMP DP  RH WIND       PRES   REMARKS
MOLINE         CLEAR     72  62  71 S3        29.95R
STERLING*      MOCLDY    74  60  61 E5        29.96S
SAVANNA*       CLOUDY    74  58  58 CALM      29.95R
$$

ILZ003-004-008-010-011-017-018-310400-
NORTH CENTRAL ILLINOIS

CITY           SKY/WX    TMP DP  RH WIND       PRES   REMARKS
ROCKFORD       MOCLDY    72  54  53 E6        29.99R
FREEPORT*      CLOUDY    69  52  53 E3        29.99S
ROCHELLE*      CLOUDY    72  55  53 E3        29.97S
DE KALB*       CLOUDY    69  56  63 NE7       29.99R
$$

ILZ005-006-012>014-019>023-310400-
NORTHEAST ILLINOIS

CITY           SKY/WX    TMP DP  RH WIND       PRES   REMARKS
CHICAGO-OHARE  CLOUDY    71  55  56 E8        29.98R
CHICAGO-MIDWAY MOCLDY    73  54  51 E10       29.98R
AURORA         CLOUDY    73  60  63 NE3       29.97R
LANSING*       CLOUDY    71  55  56 CALM      29.99R
JOLIET*        CLOUDY    73  61  65 E6        29.97R
WAUKEGAN       PTCLDY    60  58  92 CALM      29.99R
DUPAGE AIRPORT CLOUDY    72  55  55 E8        29.97R
KANKAKEE*      CLOUDY    72  58  61 CALM      29.97R
WHEELING       CLOUDY    67  55  65 CALM      30.00R
MORRIS*        CLOUDY    77  59  54 W5        29.96R
ROMEOVILLE*    PTCLDY    72  55  55 E8        29.98R
NORTHERLY ISL    N/A     65  55  70 MISG        N/A
NORTHERLY ISL    N/A     65  55  70 MISG        N/A
$$

LMZ740>746-310400-
SOUTHERN LAKE MICHIGAN

STATION/POSITION SKY/WX   TEMP    WIND        PRES    VSBY  WAVE
                          AIR SEA DIR/SP/G                  HT/PER
                          (F)     (DEG/KT/KT) (MB)    (MI)  (FT/S)
SOUTHERN BUOY              61 58   70/  6/  6 1015.4R         0
WILMETTE HARBOR            60 59  330/  4/  4   N/A           0
HARRISON CRIB              66      30/  1/  2   N/A
BURNHAM HARBOR             64     360/  2/  4   N/A
CALUMET HARBOR                                1014.6R
BURNS HARBOR               67      80/ 10/ 12 1015.6R
MICHIGAN CITY              69      30/ 12/ 12   N/A
MICHIGAN CITY 6N           65 62   50/  8/  8   N/A           1
ST. JOSEPH                 67 65   30/  8/ 10   N/A           1
$$

ILZ025>027-034>036-040-047-049-050-058-095>099-310400-
WEST-CENTRAL ILLINOIS

CITY           SKY/WX    TMP DP  RH WIND       PRES   REMARKS
QUINCY         PTCLDY    74  64  71 W9        29.98R
GALESBURG*     CLEAR     71  64  78 CALM      29.97R
MACOMB*        CLEAR     72  65  79 S5        29.99R
JACKSONVILLE*  CLOUDY    74  59  60 S3        29.98S
PITTSFIELD*    CLOUDY    73  62  67 SW7       30.00R
$$

ILZ028>032-037-038-041>044-048-051>054-059>061-310400-
CENTRAL ILLINOIS

CITY           SKY/WX    TMP DP  RH WIND       PRES   REMARKS
PONTIAC        PTCLDY    73  61  65 S3        29.98R
BLOOMINGTON    MOCLDY    72  63  73 S9        30.00R
DECATUR        CLOUDY    72  60  66 NW14G28   30.00R
PEORIA         PTCLDY    74  63  68 CALM      29.97R
LACON*         CLEAR     70  61  74 CALM      29.96R
LINCOLN*       MOCLDY    76  62  61 CALM      29.98R
SPRINGFIELD    MOCLDY    74  56  53 SW5       29.99R
TAYLORVILLE    MOCLDY    71  59  66 CALM      29.99S
$$

ILZ033-039-045-046-055>057-062-063-310400-
EAST-CENTRAL ILLINOIS

CITY           SKY/WX    TMP DP  RH WIND       PRES   REMARKS
CHAMPAIGN      CLEAR     71  57  61 W7        29.99R
RANTOUL*       MOCLDY    74  58  59 W8        29.98S
MATTOON        PTCLDY    70  66  87 CALM      29.99R
PARIS*         PTCLDY    73  62  69 CALM      30.00R
$$

ILZ079-100>102-310400-
SOUTHWEST ILLINOIS

CITY           SKY/WX    TMP DP  RH WIND       PRES   REMARKS
ALTON          MOCLDY    70  59  68 SW6       29.98S
CAHOKIA*       CLOUDY    73  62  68 S3        29.97F
SPARTA*        CLOUDY    74  66  76 CALM      29.99S
$$

ILZ064>066-069>071-074>076-080>082-084>086-088>090-092>094-310400-
SOUTH-CENTRAL ILLINOIS

CITY           SKY/WX    TMP DP  RH WIND       PRES   REMARKS
CARBONDALE     PTCLDY    70  65  84 CALM      29.98S
CAIRO*         CLEAR     73  69  88 CALM      29.97F
EFFINGHAM*     MOCLDY    70  69  98 CALM      30.00S
MARION         PTCLDY    70  66  88 CALM      29.99S
MT. VERNON     CLOUDY    70  63  78 CALM      29.99S
CENTRALIA*     CLOUDY    73  70  93 CALM      29.98S
SALEM*         PTCLDY    74  66  74 CALM      29.99R
METROPOLIS*    CLEAR     71  69  93 CALM      29.99S
$$

ILZ067-068-072-073-078-083-087-091-310400-
SOUTHEAST ILLINOIS

CITY           SKY/WX    TMP DP  RH WIND       PRES   REMARKS
LAWRENCEVILLE  PTCLDY    74  62  66 CALM      29.99R
FLORA*         PTCLDY    73  70  89 CALM      29.99R
FAIRFIELD*     CLOUDY    72  64  75 CALM      29.97S
HARRISBURG*    CLOUDY    73  69  89 CALM      29.99S
ROBINSON*      MOCLDY    68  64  87 NW5       30.00R
CARMI*         PTCLDY    73  69  89 CALM      29.98S
$$

ABBREVIATIONS USED IN REMARKS
   TC - TEMPERATURE IN CELSIUS
  WCI - WIND CHILL INDEX
   HX - HEAT INDEX
  VSB - VISIBILITY
$$





USA.gov is the U.S. government's official web portal to all federal, state and local government web resources and services.